Location: Unspecified
(0.0000°N, 0.0000°E)
Time: 02:15:15
(UTC+02:00)

H-2A R/B - Visible Passes

Search period start: 25 July 2016 00:00
Search period end: 04 August 2016 00:00
Orbit: 301 x 33155 km, 28.0° (Epoch: 24 July)

Date Brightness Start Highest point End Pass type
(mag) Time Alt. Az. Time Alt. Az. Time Alt. Az.
25 Jul 9.3 01:41:21 10° E 02:26:28 12° E 03:00:47 10° E visible
25 Jul 8.5 05:54:43 10° WNW 07:27:14 24° WNW 10:25:34 10° W visible
26 Jul 7.1 00:29:01 10° WNW 06:18:00 79° NW 09:30:55 10° SE visible
27 Jul 9.1 00:34:38 10° ENE 03:00:17 22° E 04:11:28 10° ESE visible
27 Jul 8.8 06:55:23 10° WNW 07:56:54 15° WNW 09:27:41 10° WNW visible
28 Jul 6.9 01:05:22 10° NW 05:36:13 74° NNW 10:05:54 10° SE visible
28 Jul 4.6 20:13:05 10° W 20:17:47 41° N 04:59:14 10° ESE visible
30 Jul 6.6 01:42:08 10° NW 05:09:58 68° NNW 10:40:34 10° SE visible
30 Jul 5.4 20:47:47 10° WNW 20:54:23 37° N 05:41:03 10° ESE visible
01 Aug 6.3 02:19:31 10° NW 05:03:59 62° NW 11:14:58 10° SSE visible
01 Aug 6.0 21:22:37 10° WNW 21:32:02 36° N 06:20:01 10° ESE visible
03 Aug 6.0 02:57:46 10° NW 05:17:04 54° NW 11:49:11 10° SSE visible
